Location: Eschentzwiller
(47.7125°N, 7.3981°E)
Time: 04:27:20
(UTC+00:00)

Okean-O - Pass Details

Date: 27 October 2020
Orbit: 638 x 641 km, 98.2° (Epoch: 01 December)

Event Time Altitude Azimuth Distance (km) Brightness Sun altitude
Rises 17:12:27 0° 142° (SE) 2,937 5.7 -9.4°
Reaches altitude 10° 17:14:45 10° 134° (SE) 2,032 4.9 -9.7°
Maximum altitude 17:18:48 36° 68° (ENE) 1,013 3.2 -10.4°
Drops below altitude 10° 17:22:53 10° 1° (N) 2,045 5.1 -11.1°
Sets 17:25:13 0° 354° (N) 2,959 6.0 -11.5°
